Weather History for KDEC - March, 2014

Change the Weather History Date:

Monday, March 3, 2014

  Actual Average Record
Temperature  
Mean Temperature 12 °F 37 °F  
Max Temperature 21 °F 46 °F - ()
Min Temperature 2 °F 28 °F - ()
Degree Days  
Heating Degree Days 53 28  
Month to date heating degree days 142 86  
Since 1 July heating degree days 4954 4343  
Cooling Degree Days 0 0  
Month to date cooling degree days 0 0  
Year to date cooling degree days 0 0  
Moisture  
Dew Point -1 °F    
Average Humidity 60    
Maximum Humidity 70    
Minimum Humidity 49    
Precipitation  
Precipitation 0.00 in 0.08 in - ()
Month to date precipitation T 0.23  
Year to date precipitation 1.12 3.95  
Sea Level Pressure  
Sea Level Pressure 30.47 in    
Wind  
Wind Speed 9 mph (NE)    
Max Wind Speed 21 mph    
Max Gust Speed 25 mph    
Visibility 10 miles    
Events      
T = Trace of Precipitation, MM = Missing Value Source: NWS Daily Summary

Daily Weather History Graph

Daily Weather History Graph

Search for Another Location

Airport or City:

Trip Planner

Search our weather history database for the weather conditions in past years. The results will help you decide how hot, cold, wet, or windy it might be!

Date:

Astronomy

Mar. 03, 2014 Rise Set
Actual Time 6:25 AM CST 5:49 PM CST
Civil Twilight 5:58 AM CST 6:16 PM CST
Nautical Twilight 5:27 AM CST 6:48 PM CST
Astronomical Twilight 4:56 AM CST 7:19 PM CST
Moon 7:34 AM CST (3/3) 8:52 PM CST (3/3)
Length of Visible Light 12h 18m
Length of Day
11h 24m
Waxing Crescent, 8% of the Moon is Illuminated
Mar 3
Waxing Crescent
Mar 8
First Quarter
Mar 16
Full
Mar 23
Last Quarter
Mar 30
New

Hourly Weather History & Observations

Time (CST) Temp. Windchill Dew Point Humidity Pressure Visibility Wind Dir Wind Speed Gust Speed Precip Events Conditions
12:54 AM 6.1 °F -12.2 °F -7.1 °F 55% 30.43 in 10.0 mi North 16.1 mph - N/A   Clear
1:54 AM 5.0 °F -13.0 °F -8.0 °F 55% 30.41 in 10.0 mi North 15.0 mph 23.0 mph N/A   Clear
2:54 AM 3.9 °F -13.0 °F -8.0 °F 58% 30.43 in 10.0 mi North 12.7 mph - N/A   Clear
3:54 AM 3.0 °F -13.3 °F -9.0 °F 57% 30.44 in 10.0 mi North 11.5 mph - N/A   Clear
4:54 AM 3.0 °F -14.1 °F -9.0 °F 57% 30.45 in 10.0 mi North 12.7 mph - N/A   Clear
5:54 AM 3.0 °F -12.5 °F -9.0 °F 57% 30.48 in 10.0 mi North 10.4 mph - N/A   Clear
6:54 AM 3.0 °F -9.3 °F -8.0 °F 60% 30.50 in 10.0 mi North 6.9 mph - N/A   Clear
7:54 AM 3.9 °F -11.3 °F -8.0 °F 58% 30.53 in 10.0 mi North 10.4 mph - N/A   Clear
8:54 AM 8.1 °F -3.2 °F -4.0 °F 58% 30.53 in 10.0 mi North 6.9 mph - N/A   Clear
9:54 AM 12.9 °F 1.6 °F -2.0 °F 51% 30.53 in 10.0 mi NNE 8.1 mph - N/A   Clear
10:54 AM 15.1 °F 2.5 °F -0.9 °F 49% 30.53 in 10.0 mi NE 10.4 mph - N/A   Clear
11:54 AM 18.0 °F 7.7 °F 1.0 °F 48% 30.51 in 10.0 mi NNE 8.1 mph - N/A   Clear
12:54 PM 18.0 °F 5.4 °F 1.9 °F 50% 30.51 in 10.0 mi NE 11.5 mph - N/A   Clear
1:54 PM 19.9 °F 10.1 °F 3.9 °F 50% 30.49 in 10.0 mi ENE 8.1 mph - 0.01 in   Clear
2:54 PM 19.9 °F 7.9 °F 5.0 °F 52% 30.48 in 10.0 mi ENE 11.5 mph - N/A   Clear
3:54 PM 19.9 °F 10.1 °F 6.1 °F 55% 30.48 in 10.0 mi NE 8.1 mph - N/A   Clear
4:54 PM 18.0 °F 7.7 °F 5.0 °F 57% 30.48 in 10.0 mi NE 8.1 mph - N/A   Clear
5:54 PM 16.0 °F 4.4 °F 5.0 °F 62% 30.47 in 10.0 mi East 9.2 mph - N/A   Clear
6:54 PM 15.1 °F 4.2 °F 5.0 °F 64% 30.46 in 10.0 mi ENE 8.1 mph - N/A   Clear
7:54 PM 14.0 °F 2.9 °F 3.9 °F 64% 30.46 in 10.0 mi NE 8.1 mph - N/A   Clear
8:54 PM 12.9 °F 3.8 °F 3.9 °F 67% 30.45 in 10.0 mi East 5.8 mph - N/A   Clear
9:54 PM 12.9 °F 2.6 °F 5.0 °F 71% 30.43 in 10.0 mi East 6.9 mph - N/A   Clear
10:54 PM 14.0 °F 8.2 °F 5.0 °F 67% 30.41 in 10.0 mi East 3.5 mph - N/A   Clear
11:54 PM 14.0 °F 2.9 °F 6.1 °F 71% 30.37 in 10.0 mi ESE 8.1 mph - N/A   Clear